Location: Mascot Post Office (historical)
(40.2645°N, 99.5462°W)
Time: 17:26:23
(UTC+00:00)

Cosmos 2333 Rocket - Pass Details

Date: 14 July 2020
Orbit: 837 x 864 km, 70.8° (Epoch: 05 August)

Event Time Altitude Azimuth Distance (km) Brightness Sun altitude
Rises 03:31:05 0° 234° (SW) 3,398 5.5 -13.5°
Reaches altitude 10° 03:33:50 10° 245° (WSW) 2,471 4.9 -13.9°
Maximum altitude 03:38:42 29° 304° (NW) 1,532 4.4 -14.6°
Drops below altitude 10° 03:43:37 10° 3° (N) 2,498 5.3 -15.2°
Sets 03:46:27 0° 15° (NNE) 3,442 5.8 -15.6°
